Location: Caltech
(34.1382°N, 118.1253°W)
Time: 00:23:52
(UTC-08:00)

Tiros 1 despin weight - Visible Passes

Search period start: 26 January 2015 00:00
Search period end: 05 February 2015 00:00
Orbit: 599 x 649 km, 48.2° (Epoch: 25 January)

Date Brightness Start Highest point End Pass type
(mag) Time Alt. Az. Time Alt. Az. Time Alt. Az.
26 Jan ? 18:53:58 10° WSW 18:58:41 67° NW 19:00:05 43° NNE visible
27 Jan ? 19:13:01 10° W 19:17:25 36° NNW 19:18:11 34° N visible
28 Jan ? 17:49:23 10° SW 17:54:06 89° SE 17:58:51 10° NE visible
28 Jan ? 19:32:29 10° WNW 19:36:14 23° NNW 19:36:14 23° NNW visible
29 Jan ? 18:08:11 10° WSW 18:12:45 47° NNW 18:17:00 12° NE visible
29 Jan ? 19:52:11 10° NW 19:54:12 16° NNW 19:54:12 16° NNW visible
30 Jan ? 18:27:28 10° W 18:31:34 28° NNW 18:34:56 14° NNE visible
30 Jan ? 20:11:51 10° NW 20:12:07 11° NW 20:12:07 11° NW visible
31 Jan ? 18:47:04 10° WNW 18:50:34 20° NNW 18:52:48 15° NNE visible
01 Feb ? 19:06:47 10° NW 19:09:39 16° N 19:10:39 15° N visible
02 Feb ? 17:41:58 10° WNW 17:45:45 23° NNW 17:49:30 10° NNE visible
02 Feb ? 19:26:13 10° NNW 19:28:28 14° N 19:28:28 14° N visible
03 Feb ? 18:01:40 10° NW 18:04:47 17° NNW 18:07:53 10° NNE visible
03 Feb ? 19:45:09 10° NNW 19:46:16 13° NNW 19:46:16 13° NNW visible
04 Feb ? 18:21:16 10° NW 18:23:56 15° N 18:26:34 10° NNE visible
04 Feb ? 20:03:39 10° NNW 20:04:05 12° NNW 20:04:05 12° NNW visible
